Powrót do katalogu

FENGYUN 1C DEB

AktywnyPO
NORAD 31780·DEBRIS·🇨🇳 China

Wystrzelony May 10, 1999 z Taiyuan Satellite Launch Center

Loading…

Następne Przeloty (najbliższe 24 godziny)

TLE

ŚwieżeSource: Space-Track

Epoka: Sep 12, 2026, 11:52 UTC

1 31780U 99025CGF 26255.49464861  .00001076  00000-0  16007-3 0  9997
2 31780  99.3017  91.2982 0146127 292.7193  65.8620 14.70792294 25082

Śledź FENGYUN 1C DEB w czasie rzeczywistym z AllMySat

Download on the App Store